Forest City, IA

4:51 PM CDT on September 22, 2017 (GMT -0500)
Forest City Municipal

Weather History for KFXY - October, 2013

Change the Weather History Date:

Tuesday, October 15, 2013

  Actual Average Record
Temperature  
Mean Temperature 48 °F -  
Max Temperature 53 °F 60 °F 69 °F (2016)
Min Temperature 44 °F 36 °F 32 °F (2012)
Degree Days  
Heating Degree Days 16    
Moisture  
Dew Point 45 °F    
Average Humidity 91    
Maximum Humidity 100    
Minimum Humidity 81    
Precipitation  
Precipitation 0.31 in - - ()
Sea Level Pressure  
Sea Level Pressure 29.76 in    
Wind  
Wind Speed 15 mph (SW)    
Max Wind Speed 22 mph    
Max Gust Speed 30 mph    
Visibility 7 miles    
Events Rain    
Averages and records for this station are not official NWS values.
T = Trace of Precipitation, MM = Missing Value Source: NWS Daily Summary

Daily Weather History Graph

Daily Weather History Graph

Search for Another Location

Airport or City:

Trip Planner

Search our weather history database for the weather conditions in past years. The results will help you decide how hot, cold, wet, or windy it might be!

Date:

Astronomy

Oct. 15, 2013 Rise Set
Actual Time 7:28 AM CDT 6:31 PM CDT
Civil Twilight 6:59 AM CDT 6:59 PM CDT
Nautical Twilight 6:26 AM CDT 7:32 PM CDT
Astronomical Twilight 5:53 AM CDT 8:05 PM CDT
Moon 4:41 PM CDT (10/15) 3:46 AM CDT (10/15)
Length of Visible Light 11h 59m
Length of Day
11h 02m
Waxing Gibbous, 88% of the Moon is Illuminated
Oct 15
Waxing Gibbous
Oct 18
Full
Oct 26
Last Quarter
Nov 3
New
Nov 9
First Quarter

Hourly Weather History & Observations

Time (CDT) Temp. Windchill Dew Point Humidity Pressure Visibility Wind Dir Wind Speed Gust Speed Precip Events Conditions
12:35 AM 48.2 °F - 46.4 °F 93% 29.85 in 4.0 mi SE 15.0 mph 20.7 mph 0.08 in Rain Rain
12:55 AM 48.2 °F - 46.4 °F 93% 29.84 in 4.0 mi SE 15.0 mph 24.2 mph 0.18 in Rain Heavy Rain
1:15 AM 48.2 °F - 46.4 °F 93% 29.82 in 5.0 mi ESE 13.8 mph 21.9 mph 0.05 in Rain Light Rain
1:35 AM 48.2 °F - 46.4 °F 93% 29.81 in 7.0 mi SE 17.3 mph 25.3 mph 0.06 in Rain Light Rain
1:55 AM 48.2 °F - 46.4 °F 93% 29.81 in 10.0 mi SE 18.4 mph 26.5 mph 0.07 in Rain Rain
2:15 AM 48.2 °F - 46.4 °F 93% 29.78 in 10.0 mi ESE 17.3 mph 25.3 mph N/A   Light Drizzle
2:35 AM 48.2 °F - 46.4 °F 93% 29.77 in 10.0 mi SE 21.9 mph 29.9 mph N/A   Light Drizzle
2:55 AM 50.0 °F - 46.4 °F 87% 29.74 in 10.0 mi ESE 16.1 mph 28.8 mph N/A Rain Light Rain
3:15 AM 50.0 °F - 46.4 °F 87% 29.77 in 10.0 mi SSE 17.3 mph 20.7 mph N/A Rain Light Rain
3:35 AM 50.0 °F - 48.2 °F 94% 29.73 in 5.0 mi SE 16.1 mph 21.9 mph 0.01 in Rain Heavy Rain
3:55 AM 50.0 °F - 48.2 °F 94% 29.74 in 7.0 mi SE 16.1 mph 21.9 mph 0.01 in   Overcast
4:15 AM 51.8 °F - 50.0 °F 94% 29.73 in 7.0 mi SE 16.1 mph 21.9 mph N/A   Overcast
4:35 AM 51.8 °F - 50.0 °F 94% 29.72 in 7.0 mi SE 15.0 mph 19.6 mph N/A   Overcast
4:55 AM 51.8 °F - 50.0 °F 94% 29.72 in 7.0 mi SE 12.7 mph - N/A   Overcast
5:15 AM 51.8 °F - 51.8 °F 100% 29.71 in 7.0 mi SSE 11.5 mph - N/A Rain Rain
5:35 AM 53.6 °F - 51.8 °F 94% 29.71 in 5.0 mi SSE 9.2 mph - N/A   Drizzle
5:55 AM 53.6 °F - 53.6 °F 100% 29.72 in 7.0 mi SW 16.1 mph 21.9 mph N/A   Overcast
6:15 AM 51.8 °F - 50.0 °F 94% 29.72 in 10.0 mi SW 13.8 mph 20.7 mph N/A   Overcast
6:35 AM 51.8 °F - 50.0 °F 94% 29.72 in 10.0 mi SSW 15.0 mph 21.9 mph N/A   Overcast
6:55 AM 51.8 °F - 48.2 °F 88% 29.72 in 10.0 mi SSW 12.7 mph 21.9 mph N/A   Overcast
7:15 AM 50.0 °F - 48.2 °F 94% 29.72 in 10.0 mi SSW 11.5 mph 20.7 mph N/A   Overcast
7:35 AM 50.0 °F - 46.4 °F 87% 29.72 in 7.0 mi SW 15.0 mph 24.2 mph N/A   Overcast
7:55 AM 50.0 °F - 46.4 °F 87% 29.73 in 7.0 mi SSW 11.5 mph 19.6 mph N/A   Overcast
8:15 AM 50.0 °F - 46.4 °F 87% 29.74 in 10.0 mi SW 13.8 mph 20.7 mph N/A   Overcast
8:35 AM 50.0 °F - 46.4 °F 87% 29.74 in 10.0 mi SW 10.4 mph - N/A   Overcast
8:55 AM 50.0 °F - 46.4 °F 87% 29.75 in 10.0 mi SW 9.2 mph - N/A   Overcast
9:15 AM 50.0 °F - 46.4 °F 87% 29.74 in 10.0 mi SW 12.7 mph 19.6 mph N/A   Overcast
9:35 AM 48.2 °F - 44.6 °F 87% 29.75 in 10.0 mi SW 15.0 mph 23.0 mph 0.01 in   Light Drizzle
9:55 AM 48.2 °F - 44.6 °F 87% 29.75 in 10.0 mi SW 12.7 mph 18.4 mph 0.01 in   Overcast
10:15 AM 46.4 °F 39.5 °F 44.6 °F 93% 29.75 in 10.0 mi SW 17.3 mph 24.2 mph N/A   Overcast
10:35 AM 46.4 °F 40.1 °F 44.6 °F 93% 29.76 in 10.0 mi SW 15.0 mph 20.7 mph N/A   Overcast
10:55 AM 46.4 °F 40.1 °F 42.8 °F 87% 29.76 in 10.0 mi SW 15.0 mph 23.0 mph N/A   Overcast
11:15 AM 46.4 °F 40.7 °F 42.8 °F 87% 29.76 in 10.0 mi SW 12.7 mph 18.4 mph N/A   Overcast
11:35 AM 46.4 °F 39.0 °F 42.8 °F 87% 29.76 in 10.0 mi SW 19.6 mph 25.3 mph N/A   Overcast
11:55 AM 46.4 °F 39.2 °F 42.8 °F 87% 29.77 in 10.0 mi SW 18.4 mph 24.2 mph N/A   Overcast
12:15 PM 46.4 °F 41.1 °F 41.0 °F 81% 29.77 in 10.0 mi SW 11.5 mph 21.9 mph N/A   Overcast
12:35 PM 46.4 °F 40.4 °F 41.0 °F 81% 29.77 in 10.0 mi SW 13.8 mph 28.8 mph N/A   Overcast
12:55 PM 46.4 °F 40.4 °F 41.0 °F 81% 29.77 in 10.0 mi SW 13.8 mph 21.9 mph N/A   Overcast
1:15 PM 46.4 °F 39.5 °F 41.0 °F 81% 29.76 in 10.0 mi SW 17.3 mph 21.9 mph N/A   Overcast
1:35 PM 46.4 °F 39.8 °F 41.0 °F 81% 29.75 in 10.0 mi SW 16.1 mph 24.2 mph N/A   Overcast
1:55 PM 46.4 °F 40.1 °F 41.0 °F 81% 29.75 in 10.0 mi SW 15.0 mph 24.2 mph N/A   Overcast
2:15 PM 46.4 °F 39.8 °F 42.8 °F 87% 29.75 in 10.0 mi SW 16.1 mph 24.2 mph N/A   Overcast
2:35 PM 46.4 °F 39.2 °F 42.8 °F 87% 29.74 in 10.0 mi SW 18.4 mph 25.3 mph N/A   Overcast
2:55 PM 46.4 °F 39.5 °F 42.8 °F 87% 29.74 in 10.0 mi SW 17.3 mph 23.0 mph N/A   Overcast
3:15 PM 46.4 °F 39.5 °F 42.8 °F 87% 29.74 in 10.0 mi SW 17.3 mph 24.2 mph N/A   Overcast
3:35 PM 46.4 °F 40.1 °F 42.8 °F 87% 29.74 in 10.0 mi SW 15.0 mph 20.7 mph N/A   Overcast
3:55 PM 46.4 °F 40.1 °F 44.6 °F 93% 29.74 in 7.0 mi SW 15.0 mph 19.6 mph N/A   Overcast
4:15 PM 46.4 °F 41.1 °F 44.6 °F 93% 29.74 in 5.0 mi SW 11.5 mph 19.6 mph N/A Rain Rain
4:35 PM 46.4 °F 41.1 °F 44.6 °F 93% 29.74 in 5.0 mi SW 11.5 mph 17.3 mph N/A   Drizzle
4:55 PM 46.4 °F 41.5 °F 44.6 °F 93% 29.74 in 5.0 mi SW 10.4 mph 16.1 mph N/A   Light Drizzle
5:15 PM 48.2 °F - 46.4 °F 93% 29.74 in 7.0 mi SW 9.2 mph - N/A   Overcast
5:35 PM 48.2 °F - 46.4 °F 93% 29.74 in 3.0 mi West 9.2 mph 17.3 mph N/A Rain Light Rain
5:55 PM 48.2 °F - 46.4 °F 93% 29.74 in 2.5 mi West 11.5 mph 17.3 mph N/A   Overcast
6:15 PM 48.2 °F - 46.4 °F 93% 29.75 in 1.8 mi West 10.4 mph 19.6 mph 0.01 in Rain Rain
6:35 PM 46.4 °F 41.5 °F 44.6 °F 93% 29.75 in 2.0 mi West 10.4 mph 16.1 mph 0.01 in Rain Light Rain
6:55 PM 46.4 °F 40.7 °F 44.6 °F 93% 29.76 in 2.0 mi West 12.7 mph 21.9 mph 0.01 in Rain Light Rain
7:15 PM 46.4 °F 41.1 °F 44.6 °F 93% 29.77 in 2.0 mi West 11.5 mph 19.6 mph N/A   Drizzle
7:55 PM 46.4 °F 40.7 °F 44.6 °F 93% 29.78 in 1.8 mi West 12.7 mph 17.3 mph N/A Rain Light Rain
8:15 PM 46.4 °F 40.4 °F 44.6 °F 93% 29.79 in 1.8 mi West 13.8 mph 18.4 mph N/A Rain Light Rain
8:35 PM 46.4 °F 41.1 °F 44.6 °F 93% 29.81 in 1.5 mi West 11.5 mph - 0.01 in Rain Light Rain
8:55 PM 46.4 °F 40.1 °F 44.6 °F 93% 29.81 in 1.8 mi West 15.0 mph 18.4 mph 0.01 in Rain Rain
9:15 PM 46.4 °F 39.8 °F 44.6 °F 93% 29.82 in 1.5 mi West 16.1 mph 20.7 mph 0.01 in Rain Light Rain
9:35 PM 44.6 °F 37.4 °F 44.6 °F 100% 29.82 in 1.2 mi West 16.1 mph 21.9 mph 0.01 in Rain Light Rain
9:55 PM 44.6 °F 37.4 °F 44.6 °F 100% 29.83 in 1.5 mi WNW 16.1 mph 21.9 mph 0.02 in Rain Light Rain
10:15 PM 44.6 °F 37.4 °F 44.6 °F 100% 29.83 in 2.5 mi WNW 16.1 mph 23.0 mph N/A Rain Light Rain
10:35 PM 44.6 °F 38.1 °F 44.6 °F 100% 29.83 in 2.5 mi WNW 13.8 mph 21.9 mph N/A   Overcast
10:55 PM 44.6 °F 38.1 °F 44.6 °F 100% 29.84 in 2.5 mi WNW 13.8 mph 19.6 mph N/A   Overcast
11:15 PM 44.6 °F 37.8 °F 44.6 °F 100% 29.84 in 2.0 mi WNW 15.0 mph 21.9 mph N/A   Overcast
11:35 PM 44.6 °F 38.4 °F 44.6 °F 100% 29.84 in 2.5 mi WNW 12.7 mph 17.3 mph N/A   Overcast
11:55 PM 44.6 °F 38.1 °F 44.6 °F 100% 29.84 in 4.0 mi NW 13.8 mph 23.0 mph N/A   Overcast